,,PA_Meas_PMT16A,,PR_Meas_QMR101_102,,RH_Meas_QMH101,,SR_Meas_QMS101,,TA_Meas_QMH101,,GenWind,,GenWind,
time,status,PA,status,PR,status,RH,status,SR,status,TA,status,DirAvg,status,SpdAvg,
2010-05-24, 00:00:04,VALID,917.288,VALID,0,VALID,96.3066,VALID,0,VALID,21.79,VALID,15,VALID,0.164063,
2010-05-24, 00:01:04,VALID,917.305,VALID,0,VALID,96.3142,VALID,0,VALID,21.7883,VALID,15,VALID,0.168359,
2010-05-24, 00:02:04,VALID,917.286,VALID,0,VALID,96.3219,VALID,0,VALID,21.7883,VALID,15,VALID,0.253125,
2010-05-24, 00:03:04,VALID,917.258,VALID,0,VALID,96.2685,VALID,0,VALID,21.7883,VALID,15,VALID,0.162891,
2010-05-24, 00:04:04,VALID,917.251,VALID,0,VALID,96.2609,VALID,0,VALID,21.7883,VALID,15,VALID,0.169141,
2010-05-24, 00:05:04,VALID,917.208,VALID,0,VALID,96.2228,VALID,0,VALID,21.8079,VALID,15,VALID,0,
2010-05-24, 00:06:04,VALID,917.189,VALID,0,VALID,96.0703,VALID,0,VALID,21.7493,VALID,15,VALID,0,
2010-05-24, 00:07:04,VALID,917.175,VALID,0,VALID,95.9941,VALID,0,VALID,21.7493,VALID,15,VALID,0,
2010-05-24, 00:08:04,VALID,917.171,VALID,0,VALID,95.9102,VALID,0,VALID,21.7493,VALID,15,VALID,0,
2010-05-24, 00:09:04,VALID,917.198,VALID,0,VALID,95.6891,VALID,0,VALID,21.7315,VALID,15,VALID,0,
2010-05-24, 00:10:04,VALID,917.176,VALID,0,VALID,95.1707,VALID,0,VALID,21.6534,VALID,15,VALID,0,
2010-05-24, 00:11:04,VALID,917.159,VALID,0,VALID,95.0716,VALID,0,VALID,21.6323,VALID,15,VALID,0.4125,
2010-05-24, 00:12:04,VALID,917.174,VALID,0,VALID,94.9496,VALID,0,VALID,21.5754,VALID,15,VALID,0.645703,
2010-05-24, 00:13:04,VALID,917.141,VALID,0,VALID,95.1479,VALID,0,VALID,21.5363,VALID,15,VALID,0.424219,
2010-05-24, 00:14:04,VALID,917.097,VALID,0,VALID,95.2775,VALID,0,VALID,21.4762,VALID,15,VALID,0.352734,
2010-05-24, 00:15:04,VALID,917.109,VALID,0,VALID,95.5062,VALID,0,VALID,21.4762,VALID,15,VALID,0.265625,
2010-05-24, 00:16:04,VALID,917.083,VALID,0,VALID,95.5824,VALID,0,VALID,21.4372,VALID,15,VALID,0.271875,
2010-05-24, 00:17:04,VALID,917.081,VALID,0,VALID,95.5748,VALID,0,VALID,21.3803,VALID,15,VALID,0.262109,
2010-05-24, 00:18:04,VALID,917.081,VALID,0,VALID,95.6434,VALID,0,VALID,21.3608,VALID,15,VALID,0.327734,
2010-05-24, 00:19:04,VALID,917.063,VALID,0,VALID,95.712,VALID,0,VALID,21.3201,VALID,15,VALID,0.163672,
2010-05-24, 00:20:04,VALID,917.03,VALID,0,VALID,95.9559,VALID,0,VALID,21.3786,VALID,15,VALID,0.175391,
2010-05-24, 00:21:04,VALID,917.026,VALID,0,VALID,96.0474,VALID,0,VALID,21.3981,VALID,15,VALID,0.205469,
2010-05-24, 00:22:04,VALID,916.998,VALID,0,VALID,96.1008,VALID,0,VALID,21.3981,VALID,15,VALID,0,
2010-05-24, 00:23:04,VALID,917.047,VALID,0,VALID,96.1236,VALID,0,VALID,21.4177,VALID,15,VALID,0,
2010-05-24, 00:24:04,VALID,916.997,VALID,0,VALID,95.9864,VALID,0,VALID,21.3803,VALID,15,VALID,0,
2010-05-24, 00:25:04,VALID,916.942,VALID,0,VALID,95.8645,VALID,0,VALID,21.3412,VALID,15,VALID,0,
2010-05-24, 00:26:04,VALID,916.94,VALID,0,VALID,95.7577,VALID,0,VALID,21.3217,VALID,15,VALID,0,
2010-05-24, 00:27:04,VALID,916.909,VALID,0,VALID,95.8797,VALID,0,VALID,21.3396,VALID,15,VALID,0,
2010-05-24, 00:28:04,VALID,916.864,VALID,0,VALID,95.9712,VALID,0,VALID,21.3396,VALID,15,VALID,0,
2010-05-24, 00:29:04,VALID,916.855,VALID,0,VALID,96.0245,VALID,0,VALID,21.3786,VALID,15,VALID,0,
2010-05-24, 00:30:04,VALID,916.888,VALID,0,VALID,96.1389,VALID,0.107441,VALID,21.4193,VALID,15,VALID,0.0496094,
2010-05-24, 00:31:04,VALID,916.854,VALID,0,VALID,96.0855,VALID,0,VALID,21.3786,VALID,15,VALID,0.379297,
2010-05-24, 00:32:04,VALID,916.831,VALID,0,VALID,96.1008,VALID,0,VALID,21.3591,VALID,15,VALID,0.33125,
2010-05-24, 00:33:04,VALID,916.829,VALID,0,VALID,96.0779,VALID,0,VALID,21.3201,VALID,15,VALID,0.199219,
2010-05-24, 00:34:04,VALID,916.822,VALID,0,VALID,96.0703,VALID,0,VALID,21.3412,VALID,15,VALID,0.167187,
2010-05-24, 00:35:04,VALID,916.805,VALID,0,VALID,96.116,VALID,0,VALID,21.3201,VALID,15,VALID,0.15,
2010-05-24, 00:36:04,VALID,916.781,VALID,0,VALID,96.1846,VALID,0,VALID,21.3396,VALID,15,VALID,0.161719,
2010-05-24, 00:37:04,VALID,916.809,VALID,0,VALID,96.2075,VALID,0,VALID,21.3608,VALID,15,VALID,0.100781,
2010-05-24, 00:38:04,VALID,916.779,VALID,0,VALID,96.238,VALID,0,VALID,21.3396,VALID,15,VALID,0,
2010-05-24, 00:39:04,VALID,916.749,VALID,0,VALID,96.2533,VALID,0,VALID,21.3412,VALID,15,VALID,0.0195313,
2010-05-24, 00:40:04,VALID,916.729,VALID,0,VALID,96.2228,VALID,0,VALID,21.3022,VALID,15,VALID,0.075,
2010-05-24, 00:41:04,VALID,916.717,VALID,0,VALID,96.1846,VALID,0,VALID,21.2421,VALID,15,VALID,0.096875,
2010-05-24, 00:42:04,VALID,916.692,VALID,0,VALID,96.1999,VALID,0,VALID,21.2437,VALID,15,VALID,0.0117188,
2010-05-24, 00:43:04,VALID,916.685,VALID,0,VALID,96.2151,VALID,0,VALID,21.2242,VALID,15,VALID,0,
2010-05-24, 00:44:04,VALID,916.639,VALID,0,VALID,96.238,VALID,0,VALID,21.1836,VALID,15,VALID,0,
2010-05-24, 00:45:04,VALID,916.642,VALID,0,VALID,96.2304,VALID,0,VALID,21.164,VALID,15,VALID,0,
2010-05-24, 00:46:04,VALID,916.588,VALID,0,VALID,96.2304,VALID,0,VALID,21.1657,VALID,15,VALID,0,
2010-05-24, 00:47:04,VALID,916.553,VALID,0,VALID,96.1465,VALID,0,VALID,21.0876,VALID,15,VALID,0,
2010-05-24, 00:48:04,VALID,916.576,VALID,0,VALID,96.1923,VALID,0,VALID,21.0876,VALID,15,VALID,0,
2010-05-24, 00:49:04,VALID,916.523,VALID,0,VALID,96.2456,VALID,0,VALID,21.0876,VALID,15,VALID,0,
2010-05-24, 00:50:04,VALID,916.549,VALID,0,VALID,96.1694,VALID,0,VALID,21.0486,VALID,15,VALID,0,
2010-05-24, 00:51:04,VALID,916.534,VALID,0,VALID,96.2761,VALID,0,VALID,21.047,VALID,15,VALID,0,
2010-05-24, 00:52:04,VALID,916.521,VALID,0,VALID,96.2304,VALID,0,VALID,21.008,VALID,15,VALID,0,
2010-05-24, 00:53:04,VALID,916.517,VALID,0,VALID,96.1923,VALID,0,VALID,21.0096,VALID,15,VALID,0.559766,
2010-05-24, 00:54:04,VALID,916.523,VALID,0,VALID,96.0932,VALID,0,VALID,20.9316,VALID,15,VALID,0.452734,
2010-05-24, 00:55:04,VALID,916.49,VALID,0,VALID,96.0627,VALID,0,VALID,20.8714,VALID,15,VALID,0.516406,
2010-05-24, 00:56:04,VALID,916.511,VALID,0,VALID,96.0322,VALID,0,VALID,20.873,VALID,15,VALID,0.425,
2010-05-24, 00:57:04,VALID,916.459,VALID,0,VALID,96.055,VALID,0,VALID,20.8519,VALID,15,VALID,0.165234,
2010-05-24, 00:58:04,VALID,916.477,VALID,0,VALID,96.0703,VALID,0,VALID,20.8535,VALID,15,VALID,0,
2010-05-24, 00:59:04,VALID,916.449,VALID,0,VALID,96.0093,VALID,0,VALID,20.8145,VALID,15,VALID,0,
2010-05-24, 01:00:04,VALID,916.408,VALID,0,VALID,96.0627,VALID,0,VALID,20.8145,VALID,15,VALID,0,
2010-05-24, 01:01:04,VALID,916.432,VALID,0,VALID,96.116,VALID,0,VALID,20.8145,VALID,15,VALID,0,
2010-05-24, 01:02:04,VALID,916.388,VALID,0,VALID,96.1465,VALID,0,VALID,20.7934,VALID,15,VALID,0,
2010-05-24, 01:03:04,VALID,916.38,VALID,0,VALID,96.238,VALID,0,VALID,20.8145,VALID,15,VALID,0,
2010-05-24, 01:04:04,VALID,916.355,VALID,0,VALID,96.238,VALID,0,VALID,20.7755,VALID,15,VALID,0.26875,
2010-05-24, 01:05:04,VALID,916.362,VALID,0,VALID,96.0627,VALID,0,VALID,20.6975,VALID,15,VALID,0.423828,
2010-05-24, 01:06:04,VALID,916.326,VALID,0,VALID,95.7044,VALID,0,VALID,20.4829,VALID,15,VALID,0.557813,
2010-05-24, 01:07:04,VALID,916.344,VALID,0,VALID,95.4528,VALID,0,VALID,20.3464,VALID,15,VALID,0.746094,
2010-05-24, 01:08:04,VALID,916.346,VALID,0,VALID,95.5519,VALID,0,VALID,20.2879,VALID,15,VALID,0.689844,
2010-05-24, 01:09:04,VALID,916.305,VALID,0,VALID,95.7501,VALID,0,VALID,20.2293,VALID,15,VALID,0.483203,
2010-05-24, 01:10:04,VALID,916.273,VALID,0,VALID,95.9331,VALID,0,VALID,20.1903,VALID,15,VALID,0.492188,
2010-05-24, 01:11:04,VALID,916.237,VALID,0,VALID,96.2533,VALID,0,VALID,20.2293,VALID,15,VALID,0.330469,
2010-05-24, 01:12:04,VALID,916.191,VALID,0,VALID,96.5277,VALID,0,VALID,20.3464,VALID,15,VALID,0.484375,
2010-05-24, 01:13:04,VALID,916.193,VALID,0,VALID,96.6192,VALID,0,VALID,20.3659,VALID,15,VALID,0.365234,
2010-05-24, 01:14:04,VALID,916.175,VALID,0,VALID,96.7107,VALID,0,VALID,20.4049,VALID,15,VALID,0.234375,
2010-05-24, 01:15:04,VALID,916.178,VALID,0,VALID,96.764,VALID,0,VALID,20.4244,VALID,15,VALID,0,
2010-05-24, 01:16:04,VALID,916.155,VALID,0,VALID,96.5811,VALID,0,VALID,20.3674,VALID,15,VALID,0,
2010-05-24, 01:17:04,VALID,916.154,VALID,0,VALID,96.5201,VALID,0,VALID,20.2114,VALID,15,VALID,0.366406,
2010-05-24, 01:18:04,VALID,916.149,VALID,0,VALID,96.5582,VALID,0,VALID,20.1318,VALID,15,VALID,0.452734,
2010-05-24, 01:19:04,VALID,916.152,VALID,0,VALID,96.4667,VALID,0,VALID,20.0343,VALID,15,VALID,0.300781,
2010-05-24, 01:20:04,VALID,916.157,VALID,0,VALID,96.7183,VALID,0,VALID,20.1318,VALID,15,VALID,0.728516,
2010-05-24, 01:21:04,VALID,916.107,VALID,0,VALID,96.9851,VALID,0,VALID,20.3659,VALID,15,VALID,0.953516,
2010-05-24, 01:22:04,VALID,916.103,VALID,0,VALID,97.008,VALID,0,VALID,20.4244,VALID,15,VALID,1.13516,
2010-05-24, 01:23:04,VALID,916.106,VALID,0,VALID,96.9622,VALID,0,VALID,20.4049,VALID,15,VALID,0.871875,
2010-05-24, 01:24:04,VALID,916.112,VALID,0,VALID,96.9317,VALID,0,VALID,20.3869,VALID,15,VALID,0.471484,
2010-05-24, 01:25:04,VALID,916.104,VALID,0,VALID,96.9698,VALID,0,VALID,20.3854,VALID,15,VALID,0.652734,
2010-05-24, 01:26:04,VALID,916.07,VALID,0,VALID,97.0232,VALID,0,VALID,20.4049,VALID,15,VALID,0.237109,
2010-05-24, 01:27:04,VALID,916.052,VALID,0,VALID,97.0385,VALID,0,VALID,20.4634,VALID,15,VALID,0.344922,
2010-05-24, 01:28:04,VALID,916.05,VALID,0,VALID,97.069,VALID,0,VALID,20.5024,VALID,15,VALID,0.597266,
2010-05-24, 01:29:04,VALID,916.018,VALID,0,VALID,97.0613,VALID,0.107441,VALID,20.5609,VALID,15,VALID,0.456641,
2010-05-24, 01:30:04,VALID,916,VALID,0,VALID,97.0613,VALID,0,VALID,20.5804,VALID,15,VALID,0.533594,
2010-05-24, 01:31:04,VALID,915.97,VALID,0,VALID,97.069,VALID,0.107441,VALID,20.5594,VALID,15,VALID,0.45625,
2010-05-24, 01:32:04,VALID,915.927,VALID,0,VALID,97.0766,VALID,0,VALID,20.5594,VALID,15,VALID,0.699609,
2010-05-24, 01:33:04,VALID,915.924,VALID,0,VALID,97.0842,VALID,0,VALID,20.5999,VALID,15,VALID,0.575781,
2010-05-24, 01:34:04,VALID,915.905,VALID,0,VALID,97.0842,VALID,0,VALID,20.6194,VALID,15,VALID,0.679297,
2010-05-24, 01:35:04,VALID,915.884,VALID,0,VALID,97.0994,VALID,0,VALID,20.6179,VALID,15,VALID,0.638281,
2010-05-24, 01:36:04,VALID,915.862,VALID,0,VALID,97.0918,VALID,0,VALID,20.6374,VALID,15,VALID,0.587891,
2010-05-24, 01:37:04,VALID,915.876,VALID,0,VALID,97.0842,VALID,0.107441,VALID,20.6179,VALID,15,VALID,0.561719,
2010-05-24, 01:38:04,VALID,915.884,VALID,0,VALID,97.1147,VALID,0,VALID,20.5984,VALID,15,VALID,0.538672,
2010-05-24, 01:39:04,VALID,915.855,VALID,0,VALID,97.0994,VALID,0.107441,VALID,20.5789,VALID,15,VALID,0.306641,
2010-05-24, 01:40:04,VALID,915.839,VALID,0,VALID,97.0994,VALID,0.107441,VALID,20.5789,VALID,15,VALID,0.496484,
2010-05-24, 01:41:04,VALID,915.827,VALID,0,VALID,97.1299,VALID,0,VALID,20.5984,VALID,15,VALID,0.299219,
2010-05-24, 01:42:04,VALID,915.853,VALID,0,VALID,97.1147,VALID,0.107441,VALID,20.5789,VALID,15,VALID,0.403125,
2010-05-24, 01:43:04,VALID,915.806,VALID,0,VALID,97.1376,VALID,0.107441,VALID,20.6194,VALID,15,VALID,0.679297,
2010-05-24, 01:44:04,VALID,915.82,VALID,0,VALID,97.1528,VALID,0.107441,VALID,20.6194,VALID,15,VALID,0.269141,
2010-05-24, 01:45:04,VALID,915.798,VALID,0,VALID,97.1299,VALID,0,VALID,20.6179,VALID,15,VALID,0.721484,
2010-05-24, 01:46:04,VALID,915.792,VALID,0,VALID,97.1604,VALID,0.107441,VALID,20.6569,VALID,15,VALID,0.307813,
2010-05-24, 01:47:04,VALID,915.811,VALID,0,VALID,97.1757,VALID,0.107441,VALID,20.7349,VALID,15,VALID,0.808984,
2010-05-24, 01:48:04,VALID,915.807,VALID,0,VALID,97.1833,VALID,0,VALID,20.756,VALID,15,VALID,0.285937,
2010-05-24, 01:49:04,VALID,915.789,VALID,0,VALID,97.1833,VALID,0,VALID,20.795,VALID,15,VALID,0.547266,
2010-05-24, 01:50:04,VALID,915.808,VALID,0,VALID,97.2062,VALID,0,VALID,20.8129,VALID,15,VALID,0.883203,
2010-05-24, 01:51:04,VALID,915.793,VALID,0,VALID,97.1604,VALID,0.107441,VALID,20.8324,VALID,15,VALID,0.503906,
2010-05-24, 01:52:04,VALID,915.797,VALID,0,VALID,97.1757,VALID,0.107441,VALID,20.8519,VALID,15,VALID,0.532031,
2010-05-24, 01:53:04,VALID,915.833,VALID,0,VALID,97.1757,VALID,0,VALID,20.8925,VALID,15,VALID,0.427734,
2010-05-24, 01:54:04,VALID,915.811,VALID,0,VALID,97.1909,VALID,0,VALID,20.8714,VALID,15,VALID,0.0652344,
2010-05-24, 01:55:04,VALID,915.805,VALID,0,VALID,97.1909,VALID,0,VALID,20.891,VALID,15,VALID,0.110937,
2010-05-24, 01:56:04,VALID,915.799,VALID,0,VALID,97.1909,VALID,0,VALID,20.9105,VALID,15,VALID,0.607813,
2010-05-24, 01:57:04,VALID,915.817,VALID,0,VALID,97.2138,VALID,0,VALID,20.9495,VALID,15,VALID,0.321484,
2010-05-24, 01:58:04,VALID,915.799,VALID,0,VALID,97.1909,VALID,0,VALID,20.9901,VALID,15,VALID,0.228516,
2010-05-24, 01:59:04,VALID,915.81,VALID,0,VALID,97.2138,VALID,0.107441,VALID,20.9901,VALID,15,VALID,0.00585938,
2010-05-24, 02:00:04,VALID,915.806,VALID,0,VALID,97.1986,VALID,0,VALID,21.008,VALID,15,VALID,0.196875,
2010-05-24, 02:01:04,VALID,915.823,VALID,0,VALID,97.2062,VALID,0,VALID,21.0096,VALID,15,VALID,0.281641,
2010-05-24, 02:02:04,VALID,915.82,VALID,0,VALID,97.1833,VALID,0.107441,VALID,20.9885,VALID,15,VALID,0.402734,
2010-05-24, 02:03:04,VALID,915.791,VALID,0,VALID,97.1986,VALID,0.107441,VALID,20.9885,VALID,15,VALID,0.746094,
2010-05-24, 02:04:04,VALID,915.774,VALID,0,VALID,97.1986,VALID,0.107441,VALID,20.969,VALID,15,VALID,0.551172,
2010-05-24, 02:05:04,VALID,915.814,VALID,0,VALID,97.1909,VALID,0.107441,VALID,20.93,VALID,15,VALID,0.953516,
2010-05-24, 02:06:04,VALID,915.784,VALID,0,VALID,97.1986,VALID,0.107441,VALID,20.9105,VALID,15,VALID,0.757031,
2010-05-24, 02:07:04,VALID,915.79,VALID,0,VALID,97.2138,VALID,0,VALID,20.93,VALID,15,VALID,0.565234,
2010-05-24, 02:08:04,VALID,915.79,VALID,0,VALID,97.2138,VALID,0.107441,VALID,20.9284,VALID,15,VALID,0.548437,
2010-05-24, 02:09:04,VALID,915.807,VALID,0,VALID,97.2138,VALID,0.107441,VALID,20.969,VALID,15,VALID,0.468359,
2010-05-24, 02:10:04,VALID,915.761,VALID,0,VALID,97.229,VALID,0,VALID,20.9901,VALID,15,VALID,0.692578,
2010-05-24, 02:11:04,VALID,915.768,VALID,0,VALID,97.229,VALID,0.107441,VALID,20.969,VALID,15,VALID,0.798437,
2010-05-24, 02:12:04,VALID,915.766,VALID,0,VALID,97.2062,VALID,0.107441,VALID,20.9495,VALID,15,VALID,1.0543,
2010-05-24, 02:13:04,VALID,915.735,VALID,0,VALID,97.2443,VALID,0.107441,VALID,20.969,VALID,16,VALID,1.17969,
2010-05-24, 02:14:04,VALID,915.724,VALID,0,VALID,97.2214,VALID,0.107441,VALID,20.969,VALID,16,VALID,0.716797,
2010-05-24, 02:15:04,VALID,915.696,VALID,0,VALID,97.2214,VALID,0,VALID,20.9885,VALID,16,VALID,0.775,
2010-05-24, 02:16:04,VALID,915.683,VALID,0,VALID,97.229,VALID,0.107441,VALID,20.9885,VALID,16,VALID,0.594922,
2010-05-24, 02:17:04,VALID,915.638,VALID,0,VALID,97.229,VALID,0.107441,VALID,20.9885,VALID,16,VALID,0.535937,
2010-05-24, 02:18:04,VALID,915.643,VALID,0,VALID,97.2367,VALID,0.107441,VALID,20.969,VALID,16,VALID,0.732422,
2010-05-24, 02:19:04,VALID,915.585,VALID,0,VALID,97.229,VALID,0.107441,VALID,20.969,VALID,16,VALID,0.0457031,
2010-05-24, 02:20:04,VALID,915.597,VALID,0,VALID,97.2367,VALID,0.107441,VALID,20.9479,VALID,16,VALID,0.483203,
2010-05-24, 02:21:04,VALID,915.56,VALID,0,VALID,97.2367,VALID,0.107441,VALID,20.9495,VALID,17,VALID,0.960938,
2010-05-24, 02:22:04,VALID,915.574,VALID,0,VALID,97.2443,VALID,0.107441,VALID,20.93,VALID,17,VALID,0.424219,
2010-05-24, 02:23:04,VALID,915.541,VALID,0,VALID,97.229,VALID,0.107441,VALID,20.9089,VALID,17,VALID,0.633203,
2010-05-24, 02:24:04,VALID,915.545,VALID,0,VALID,97.2519,VALID,0.107441,VALID,20.93,VALID,17,VALID,0.698828,
2010-05-24, 02:25:04,VALID,915.527,VALID,0,VALID,97.2519,VALID,0.107441,VALID,20.9495,VALID,17,VALID,0.739844,
2010-05-24, 02:26:04,VALID,915.523,VALID,0,VALID,97.2519,VALID,0,VALID,20.9105,VALID,17,VALID,0.768359,
2010-05-24, 02:27:04,VALID,915.503,VALID,0,VALID,97.2443,VALID,0,VALID,20.9105,VALID,17,VALID,0.808594,
2010-05-24, 02:28:04,VALID,915.5,VALID,0,VALID,97.2519,VALID,0.107441,VALID,20.9105,VALID,17,VALID,0.496875,
2010-05-24, 02:29:04,VALID,915.517,VALID,0,VALID,97.2595,VALID,0,VALID,20.912,VALID,17,VALID,0.555469,
2010-05-24, 02:30:04,VALID,915.521,VALID,0,VALID,97.2519,VALID,0,VALID,20.891,VALID,17,VALID,1.00156,
2010-05-24, 02:31:04,VALID,915.494,VALID,0,VALID,97.2595,VALID,0,VALID,20.8714,VALID,17,VALID,0.841797,
2010-05-24, 02:32:04,VALID,915.509,VALID,0,VALID,97.2748,VALID,0,VALID,20.8925,VALID,18,VALID,0.696484,
2010-05-24, 02:33:04,VALID,915.542,VALID,0,VALID,97.2672,VALID,0,VALID,20.873,VALID,18,VALID,0.703516,
2010-05-24, 02:34:04,VALID,915.517,VALID,0,VALID,97.29,VALID,0,VALID,20.8535,VALID,18,VALID,0.528125,
2010-05-24, 02:35:04,VALID,915.496,VALID,0,VALID,97.2595,VALID,0,VALID,20.8535,VALID,18,VALID,0.407813,
2010-05-24, 02:36:04,VALID,915.498,VALID,0,VALID,97.2672,VALID,0,VALID,20.8535,VALID,18,VALID,0.703516,
2010-05-24, 02:37:04,VALID,915.498,VALID,0,VALID,97.29,VALID,0,VALID,20.8129,VALID,18,VALID,0.741797,
2010-05-24, 02:38:04,VALID,915.478,VALID,0,VALID,97.2748,VALID,0,VALID,20.834,VALID,18,VALID,0.458203,
2010-05-24, 02:39:04,VALID,915.475,VALID,0,VALID,97.2748,VALID,0,VALID,20.834,VALID,18,VALID,0.752344,
2010-05-24, 02:40:04,VALID,915.484,VALID,0,VALID,97.2748,VALID,0,VALID,20.8145,VALID,18,VALID,0.891016,
2010-05-24, 02:41:04,VALID,915.486,VALID,0,VALID,97.2977,VALID,0,VALID,20.8145,VALID,18,VALID,0.626562,
2010-05-24, 02:42:04,VALID,915.477,VALID,0,VALID,97.3129,VALID,0,VALID,20.7739,VALID,18,VALID,0.641797,
2010-05-24, 02:43:04,VALID,915.449,VALID,0,VALID,97.2672,VALID,0,VALID,20.7755,VALID,18,VALID,0.412109,
2010-05-24, 02:44:04,VALID,915.434,VALID,0,VALID,97.2748,VALID,0,VALID,20.756,VALID,18,VALID,0.216406,
2010-05-24, 02:45:04,VALID,915.453,VALID,0,VALID,97.29,VALID,0,VALID,20.7365,VALID,18,VALID,0.658984,
2010-05-24, 02:46:04,VALID,915.379,VALID,0,VALID,97.2824,VALID,0,VALID,20.7365,VALID,18,VALID,0.698438,
2010-05-24, 02:47:04,VALID,915.382,VALID,0,VALID,97.29,VALID,0,VALID,20.7365,VALID,18,VALID,0.421484,
2010-05-24, 02:48:04,VALID,915.378,VALID,0,VALID,97.29,VALID,0,VALID,20.7365,VALID,18,VALID,0.210938,
2010-05-24, 02:49:04,VALID,915.369,VALID,0,VALID,97.29,VALID,0,VALID,20.717,VALID,18,VALID,0.385547,
2010-05-24, 02:50:04,VALID,915.352,VALID,0,VALID,97.2977,VALID,0,VALID,20.7365,VALID,18,VALID,0.410547,
2010-05-24, 02:51:05,VALID,915.334,VALID,0,VALID,97.3129,VALID,0,VALID,20.7365,VALID,18,VALID,0.374609,
2010-05-24, 02:52:05,VALID,915.333,VALID,0,VALID,97.3129,VALID,0,VALID,20.7365,VALID,18,VALID,0.680469,
2010-05-24, 02:53:05,VALID,915.326,VALID,0,VALID,97.2977,VALID,0,VALID,20.717,VALID,18,VALID,0.911328,
2010-05-24, 02:54:05,VALID,915.319,VALID,0,VALID,97.3129,VALID,0,VALID,20.6975,VALID,18,VALID,0.850781,
2010-05-24, 02:55:05,VALID,915.294,VALID,0,VALID,97.3129,VALID,0,VALID,20.678,VALID,18,VALID,0.507813,
2010-05-24, 02:56:05,VALID,915.302,VALID,0,VALID,97.3281,VALID,0,VALID,20.678,VALID,18,VALID,0.414844,
2010-05-24, 02:57:05,VALID,915.312,VALID,0,VALID,97.3129,VALID,0,VALID,20.678,VALID,18,VALID,0.750781,
2010-05-24, 02:58:05,VALID,915.318,VALID,0,VALID,97.3129,VALID,0,VALID,20.6585,VALID,18,VALID,0.369922,
2010-05-24, 02:59:05,VALID,915.322,VALID,0,VALID,97.3053,VALID,0,VALID,20.678,VALID,18,VALID,0.525781,
2010-05-24, 03:00:05,VALID,915.303,VALID,0,VALID,97.3281,VALID,0,VALID,20.6585,VALID,18,VALID,0.6875,
2010-05-24, 03:01:05,VALID,915.354,VALID,0,VALID,97.3434,VALID,0,VALID,20.6585,VALID,18,VALID,0.490625,
2010-05-24, 03:02:05,VALID,915.332,VALID,0,VALID,97.3205,VALID,0,VALID,20.639,VALID,18,VALID,0.303516,
2010-05-24, 03:03:05,VALID,915.34,VALID,0,VALID,97.3205,VALID,0,VALID,20.6585,VALID,18,VALID,0.496094,
2010-05-24, 03:04:05,VALID,915.342,VALID,0,VALID,97.3281,VALID,0,VALID,20.6585,VALID,18,VALID,0.371094,
2010-05-24, 03:05:05,VALID,915.341,VALID,0,VALID,97.3129,VALID,0,VALID,20.639,VALID,18,VALID,0.645703,
2010-05-24, 03:06:05,VALID,915.347,VALID,0,VALID,97.3434,VALID,0,VALID,20.5984,VALID,18,VALID,0.496875,
2010-05-24, 03:07:05,VALID,915.334,VALID,0,VALID,97.351,VALID,0,VALID,20.6194,VALID,18,VALID,0.346484,
2010-05-24, 03:08:05,VALID,915.31,VALID,0,VALID,97.3358,VALID,0,VALID,20.5984,VALID,18,VALID,0.733984,
2010-05-24, 03:09:05,VALID,915.319,VALID,0,VALID,97.3358,VALID,0,VALID,20.5804,VALID,19,VALID,1.15586,
2010-05-24, 03:10:05,VALID,915.339,VALID,0,VALID,97.3434,VALID,0,VALID,20.5609,VALID,23,VALID,0.724219,
2010-05-24, 03:11:05,VALID,915.305,VALID,0,VALID,97.351,VALID,0,VALID,20.5414,VALID,27,VALID,0.830469,
2010-05-24, 03:12:05,VALID,915.345,VALID,0,VALID,97.3358,VALID,0.107441,VALID,20.5204,VALID,28,VALID,0.659375,
2010-05-24, 03:13:05,VALID,915.345,VALID,0,VALID,97.3586,VALID,0,VALID,20.5219,VALID,28,VALID,0.487109,
2010-05-24, 03:14:05,VALID,915.31,VALID,0,VALID,97.3434,VALID,0,VALID,20.5219,VALID,28,VALID,0.00859375,
2010-05-24, 03:15:05,VALID,915.284,VALID,0,VALID,97.351,VALID,0,VALID,20.5414,VALID,28,VALID,0,
2010-05-24, 03:16:05,VALID,915.279,VALID,0,VALID,97.351,VALID,0,VALID,20.5609,VALID,28,VALID,0.0625,
2010-05-24, 03:17:05,VALID,915.25,VALID,0,VALID,97.3586,VALID,0,VALID,20.5009,VALID,28,VALID,0.447656,
2010-05-24, 03:18:05,VALID,915.226,VALID,0,VALID,97.3434,VALID,0,VALID,20.5024,VALID,28,VALID,0.411328,
2010-05-24, 03:19:05,VALID,915.23,VALID,0,VALID,97.3586,VALID,0,VALID,20.4829,VALID,28,VALID,0.562891,
2010-05-24, 03:20:05,VALID,915.235,VALID,0,VALID,97.351,VALID,0,VALID,20.4829,VALID,28,VALID,0.370313,
2010-05-24, 03:21:05,VALID,915.238,VALID,0,VALID,97.351,VALID,0,VALID,20.4634,VALID,28,VALID,0.467969,
2010-05-24, 03:22:05,VALID,915.274,VALID,0,VALID,97.3663,VALID,0,VALID,20.4423,VALID,28,VALID,0.575391,
2010-05-24, 03:23:05,VALID,915.289,VALID,0,VALID,97.3739,VALID,0,VALID,20.4049,VALID,28,VALID,0.294922,
2010-05-24, 03:24:05,VALID,915.285,VALID,0,VALID,97.3663,VALID,0,VALID,20.4244,VALID,28,VALID,0.314844,
2010-05-24, 03:25:05,VALID,915.286,VALID,0,VALID,97.3663,VALID,0,VALID,20.4439,VALID,28,VALID,0.603906,
2010-05-24, 03:26:05,VALID,915.313,VALID,0,VALID,97.3891,VALID,0,VALID,20.4244,VALID,28,VALID,0.0675781,
2010-05-24, 03:27:05,VALID,915.352,VALID,0,VALID,97.3815,VALID,0,VALID,20.4634,VALID,28,VALID,0.244141,
2010-05-24, 03:28:05,VALID,915.342,VALID,0,VALID,97.3815,VALID,0,VALID,20.4244,VALID,28,VALID,0.840234,
2010-05-24, 03:29:05,VALID,915.318,VALID,0,VALID,97.4044,VALID,0,VALID,20.4244,VALID,28,VALID,0.544922,
2010-05-24, 03:30:05,VALID,915.332,VALID,0,VALID,97.3739,VALID,0,VALID,20.4439,VALID,29,VALID,0.876562,
2010-05-24, 03:31:05,VALID,915.353,VALID,0,VALID,97.3739,VALID,0,VALID,20.4244,VALID,29,VALID,0.487891,
2010-05-24, 03:32:05,VALID,915.385,VALID,0,VALID,97.3968,VALID,0,VALID,20.4244,VALID,29,VALID,0.673828,
2010-05-24, 03:33:05,VALID,915.395,VALID,0,VALID,97.3815,VALID,0,VALID,20.4244,VALID,29,VALID,0.677344,
2010-05-24, 03:34:05,VALID,915.422,VALID,0,VALID,97.3739,VALID,0,VALID,20.3854,VALID,111,VALID,1.06406,
2010-05-24, 03:35:05,VALID,915.409,VALID,0,VALID,97.3891,VALID,0,VALID,20.3659,VALID,110,VALID,1.27617,
2010-05-24, 03:36:05,VALID,915.455,VALID,0,VALID,97.3891,VALID,0,VALID,20.3464,VALID,110,VALID,0.960156,
2010-05-24, 03:37:05,VALID,915.437,VALID,0,VALID,97.3968,VALID,0,VALID,20.3659,VALID,110,VALID,0.612891,
2010-05-24, 03:38:05,VALID,915.426,VALID,0,VALID,97.3891,VALID,0,VALID,20.3659,VALID,110,VALID,0.945313,
2010-05-24, 03:39:05,VALID,915.426,VALID,0,VALID,97.412,VALID,0,VALID,20.3464,VALID,110,VALID,0.803906,
2010-05-24, 03:40:05,VALID,915.424,VALID,0,VALID,97.3739,VALID,0,VALID,20.3464,VALID,110,VALID,0.590234,
2010-05-24, 03:41:05,VALID,915.383,VALID,0,VALID,97.412,VALID,0,VALID,20.3659,VALID,110,VALID,0.732031,
2010-05-24, 03:42:05,VALID,915.413,VALID,0,VALID,97.4044,VALID,0,VALID,20.3659,VALID,112,VALID,0.84375,
2010-05-24, 03:43:05,VALID,915.394,VALID,0,VALID,97.4044,VALID,0,VALID,20.3253,VALID,144,VALID,1.26289,
2010-05-24, 03:44:05,VALID,915.406,VALID,0,VALID,97.412,VALID,0,VALID,20.3464,VALID,142,VALID,0.719141,
2010-05-24, 03:45:05,VALID,915.358,VALID,0,VALID,97.3968,VALID,0,VALID,20.3464,VALID,94,VALID,0.720312,
2010-05-24, 03:46:05,VALID,915.387,VALID,0,VALID,97.4044,VALID,0,VALID,20.3464,VALID,94,VALID,0.725391,